Location: Neuvy Saint Sepulchre
(46.5953°N, 1.8122°E)
Time: 19:57:45
(UTC+01:00)

ISS - Pass Details

Date: 30 November 2021
Orbit: 417 x 422 km, 51.6° (Epoch: 06 December)

Event Time Altitude Azimuth Distance (km) Brightness Sun altitude
Rises 17:51:58 0° 280° (W) 2,376 1.1 -7.6°
Reaches altitude 10° 17:54:12 10° 290° (WNW) 1,511 -0.2 -7.9°
Maximum altitude 17:57:20 33° 357° (N) 730 -2.7 -8.4°
Enters shadow 18:00:05 12° 61° (ENE) 1,376 -1.8 -8.9°
